BEIDOU-3 IGSO-3

Last updated on Dec. 12, 2019, 4:25 a.m. UTC

1 44709U 19073A   19345.33591006 -.00000183  00000-0  00000+0 0  9995
2 44709  58.6714 305.8320 0024988 184.1993 177.2723  1.00286826   590
UTC
Height (km)
Latitude
Longitude
Inclination
Orbital Period
UTC large
Height (km)
Speed (km/s)
/
Latitude / Longitude
Inclination (degrees)
Orbital Period (minutes)
Azimuth
Elevation
Range (km)
Doppler Factor
iOS Compass Heading
iOS Angle

Next 30 passes for location: Hong Kong

Rise time Rise Azimuth (degrees) Set time Set Azimuth (degrees) Duration Max altitude (degrees)

No matching passes for this satellites